Regional Weather Roundup
Issued by NWS

Home | Current Version | Previous Version | Text Only | Print | Product List | Glossary Off
Versions: 1 2 3 4 5 6 7 8 9 10 11 12 13 14 15 16 17 18 19 20 21 22 23 24 25 26 27 28 29 30 31 32 33 34 35 36 37 38 39 40 41 42 43 44 45 46 47 48 49 50

000
ASUS43 KBIS 301602
RWRND

NORTH DAKOTA REGIONAL WEATHER ROUNDUP
NATIONAL WEATHER SERVICE BISMARCK ND
1100 AM CDT SAT APR 30 2016

NOTE: "FAIR" INDICATES FEW OR NO CLOUDS BELOW 12,000 FEET WITH NO
SIGNIFICANT WEATHER AND/OR OBSTRUCTIONS TO VISIBILITY.


NDZ001>003-009>011-017-301700-
NORTHWEST NORTH DAKOTA

CITY           SKY/WX    TMP DP  RH WIND       PRES   REMARKS
WILLISTON      SUNNY     57  31  37 E9        30.27S
MINOT          SUNNY     60  30  32 NE15      30.27F
MINOT AFB      SUNNY     56  31  39 E15       30.27S
$$

NDZ018>021-031>035-040>046-301700-
SOUTHWEST NORTH DAKOTA

CITY           SKY/WX    TMP DP  RH WIND       PRES   REMARKS
BISMARCK       MOSUNNY   52  36  54 E16       30.20S
DICKINSON      SUNNY     51  33  50 NE16      30.18S
GARRISON         N/A     54  32  43 NE14G24   30.23S
HETTINGER ARPT CLOUDY    49  35  58 NE17G23   30.17R
$$

NDZ004>008-012>016-024-026-027-054-301700-
NORTHEAST NORTH DAKOTA

CITY           SKY/WX    TMP DP  RH WIND       PRES   REMARKS
GRAND FORKS    MOSUNNY   56  29  35 NE18G29   30.27F
GRND FRKS AFB  SUNNY     56  28  34 E15G23    30.27F
DEVILS LAKE    SUNNY     53  31  42 E21       30.28S
$$

NDZ022-023-025-028>030-036>039-047>053-301700-
SOUTHEAST NORTH DAKOTA

CITY           SKY/WX    TMP DP  RH WIND       PRES   REMARKS
FARGO          SUNNY     56  31  38 E23       30.19F
JAMESTOWN      CLOUDY    53  30  41 NE24G36   30.19F
$$





USA.gov is the U.S. government's official web portal to all federal, state and local government web resources and services.